Overview Statistics Trail Chart Weather Telemetry Raw packets
 

This is the latest recevied weather packets stored in our database for station/object N5CSU. If no packets are shown the sender has not sent any weather packets the latest 10 day(s).

<< 24 25 26 27 28 29 30 >>
Time Temp. Humidity Pressure Rain* Wind** Luminosity Snow
1788453151 28.33° C 80% 1014.3 hPa 0 mm - 21 W/m² -
1788452846 28.33° C 81% 1014.3 hPa 0 mm - 20 W/m² -
1788452542 28.33° C 82% 1014.3 hPa 0 mm - 21 W/m² -
1788452238 28.33° C 82% 1014.4 hPa 0 mm - 17 W/m² -
1788451933 27.78° C 83% 1014.2 hPa 0 mm - 7 W/m² -
1788451629 27.78° C 84% 1014.1 hPa 0 mm - 12 W/m² -
1788451322 27.78° C 83% 1014.2 hPa 0 mm - 12 W/m² -
1788451021 27.78° C 84% 1014.3 hPa 0 mm - 10 W/m² -
1788450716 27.78° C 84% 1014.2 hPa 0 mm - 8 W/m² -
1788450412 27.78° C 85% 1014.3 hPa 0 mm - 6 W/m² -
1788450108 27.78° C 85% 1014.3 hPa 0 mm - 7 W/m² -
1788449804 27.78° C 86% 1014.3 hPa 0 mm - 9 W/m² -
1788449499 27.78° C 85% 1014.3 hPa 0 mm - 7 W/m² -
1788449195 27.78° C 85% 1014 hPa 0 mm - 6 W/m² -
1788448891 27.78° C 86% 1014.1 hPa 0 mm - 7 W/m² -
1788448591 27.78° C 86% 1014.2 hPa 0 mm - 12 W/m² -
1788448285 27.78° C 86% 1014.1 hPa 0 mm - 7 W/m² -
1788447980 27.22° C 86% 1014.3 hPa 0 mm - 10 W/m² -
1788447675 27.22° C 86% 1014.3 hPa 0 mm - 6 W/m² -
1788447375 27.22° C 86% 1014.1 hPa 0 mm - 8 W/m² -
1788447070 27.22° C 86% 1014.4 hPa 0 mm - 12 W/m² -
1788446769 27.22° C 86% 1014.1 hPa 0 mm - 18 W/m² -
1788446465 27.22° C 86% 1014.3 hPa 0 mm - 15 W/m² -
1788446161 27.22° C 86% 1014.2 hPa 0 mm - 17 W/m² -
1788445857 27.22° C 86% 1014.2 hPa 0 mm - 17 W/m² -

* Rain latest hour (hover to see other rain measurements)
** Current wind speed in m/s (hover to see current wind gust speed)